[[{"header":{"parameterUnit":"m.s-1","parameterCategory":1,"la1":30.2991,"la2":30.254,"lo1":-89.0895,"lo2":-89.0444,"dy":0.0017,"dx":0.0017,"nx":28,"ny":28,"refTime":"2024-10-07T09:00:00:Z","depth":0,"parameterNumber":2,"parameterNumberName":"U-component_of_WINDS"},"data":[0,0,0,0,0,0,0,0,0,0,0,0,0,0,0,0,0,0,0,0,0,0,0,0,0,0,0,0,0,0,0,0,0,0,0,0,0,0,0,0,0,0,0,0,0,0,0,0,0,0,0,0,0,0,0,0,0,0,-4.2823,-4.2823,0,-4.2814,-4.2814,-4.2814,-4.2769,-4.2768,-4.2766,-4.2765,-4.2757,-4.2758,-4.2758,0,0,0,0,0,0,0,0,0,0,0,0,0,-4.2803,-4.2803,-4.2823,-4.2823,-4.2823,-4.2814,-4.2814,-4.2814,-4.2769,-4.2768,-4.2766,-4.2765,-4.2757,-4.2758,-4.2759,0,0,0,0,0,0,0,0,0,0,0,0,0,-4.2805,-4.2804,-4.2823,-4.2799,-4.2797,-4.2814,-4.2814,-4.2814,-4.2769,-4.2767,-4.2766,-4.2764,-4.2756,-4.2758,-4.2759,-4.2798,0,0,-4.2762,-4.2763,0,0,0,0,0,0,0,0,-4.2805,-4.2805,-4.2803,-4.2801,-4.2799,-4.2791,-4.2804,-4.2809,-4.277,-4.278,-4.2765,-4.2764,-4.277,-4.277,-4.2771,-4.2798,-4.2798,-4.2762,-4.2763,-4.2764,-4.2764,0,0,0,0,0,0,0,-4.2804,-4.2806,-4.282,-4.2803,-4.28,-4.279,-4.2788,-4.2805,-4.2784,-4.2779,-4.2775,-4.2775,-4.2768,-4.277,-4.2771,-4.2798,-4.2762,-4.2763,-4.2764,-4.2765,-4.2857,-4.2859,0,0,0,0,0,0,-4.2808,-4.2806,-4.282,-4.2819,-4.2798,-4.2791,-4.279,-4.2795,-4.2784,-4.278,-4.2776,-4.2773,-4.2769,-4.277,-4.2771,-4.2816,-4.2764,-4.2765,-4.2765,-4.2856,-4.2858,-4.286,0,0,0,0,0,0,-4.2807,-4.2809,-4.282,-4.2812,-4.2812,-4.2793,-4.28,-4.2796,-4.2798,-4.2782,-4.2778,-4.2782,-4.2768,-4.2769,-4.2792,-4.2816,-4.2765,-4.2766,-4.2854,-4.2856,-4.2859,-4.2909,0,0,0,0,0,0,-4.2807,-4.2809,-4.2824,-4.2812,-4.2813,-4.2842,-4.2801,-4.2797,-4.28,-4.2795,-4.2786,-4.2783,-4.2767,-4.2791,-4.2793,-4.2816,-4.2767,-4.2851,-4.2855,-4.2858,-4.2905,-4.2913,-4.292,0,0,0,0,0,-4.2806,-4.2838,-4.2825,-4.2827,-4.283,-4.2843,-4.2843,-4.2823,-4.2802,-4.2817,-4.2807,-4.2784,-4.2813,-4.2793,-4.2796,-4.282,-4.285,-4.2854,-4.2858,-4.2902,-4.2911,-4.2919,0,0,0,0,0,0,-4.2852,-4.2836,-4.2821,-4.285,-4.2848,-4.2835,-4.2853,-4.2834,-4.2838,-4.2834,-4.2809,-4.2808,-4.2835,-4.283,-4.2808,-4.2858,-4.2828,-4.2832,-4.286,-4.2869,-4.2876,-4.2876,-4.2768,0,0,0,0,0,-4.2866,-4.2877,-4.2863,-4.289,-4.289,-4.2872,-4.2876,-4.2861,-4.2859,-4.2858,-4.2849,-4.2848,-4.2856,-4.2863,-4.287,-4.2905,-4.2902,-4.2922,-4.293,-4.2936,-4.294,-4.2959,-4.2967,-4.2873,-4.2873,-4.2873,0,0,-4.2894,-4.2887,-4.2895,-4.2899,-4.2896,-4.2908,-4.2871,-4.2886,-4.2895,-4.286,-4.2881,-4.2875,-4.2872,-4.2901,-4.2914,-4.2898,-4.2966,-4.2941,-4.2946,-4.2947,-4.2964,-4.2973,-4.2981,-4.2875,-4.2875,-4.2874,0,0,-4.2951,-4.2947,-4.2969,-4.2967,-4.2963,-4.2951,-4.2957,-4.2947,-4.2942,-4.2963,-4.2937,-4.2948,-4.2964,-4.2963,-4.2964,-4.3024,-4.3003,-4.3027,-4.3065,-4.3083,-4.3091,-4.3097,-4.3118,-4.3126,-4.3031,-4.3031,-4.3032,0,-4.2986,-4.3004,-4.2983,-4.3,-4.3002,-4.2972,-4.2994,-4.2994,-4.2992,-4.2995,-4.2978,-4.2998,-4.2993,-4.3022,-4.3037,-4.3039,-4.3045,-4.3027,-4.3091,-4.3098,-4.3103,-4.3123,-4.3131,-4.3034,-4.3034,-4.3034,-4.3033,0,-4.3047,-4.306,-4.3079,-4.3079,-4.3084,-4.3104,-4.3086,-4.3094,-4.3079,-4.307,-4.3092,-4.3086,-4.3092,-4.3098,-4.3084,-4.3126,-4.3116,-4.3096,-4.3064,-4.3116,-4.3134,-4.3141,-4.3038,-4.3037,-4.3037,-4.3036,0,0,-4.3131,-4.3121,-4.3128,-4.3128,-4.3122,-4.3132,-4.3151,-4.3157,-4.3164,-4.3165,-4.3181,-4.3196,-4.3177,-4.3179,-4.3164,-4.3181,-4.3229,-4.3158,-4.3158,-4.3171,-4.3275,-4.329,-4.3299,-4.3216,-4.3217,-4.3218,-4.3275,0,-4.3186,-4.3217,-4.32,-4.3233,-4.3246,-4.3218,-4.3235,-4.3233,-4.3226,-4.3235,-4.3227,-4.3238,-4.3212,-4.3213,-4.3228,-4.322,-4.3249,-4.3216,-4.323,-4.3231,-4.323,-4.3308,-4.3324,-4.3378,-4.3282,-4.3283,-4.3284,0,-4.3253,-4.3257,-4.3292,-4.3286,-4.329,-4.3305,-4.331,-4.3319,-4.3318,-4.3311,-4.3315,-4.3297,-4.3316,-4.3286,-4.3312,-4.329,-4.3295,-4.3292,-4.3294,-4.3293,-4.326,-4.331,-4.3394,-4.3402,-4.3295,-4.3294,-4.3294,0,-4.331,-4.3325,-4.3348,-4.3349,-4.3342,-4.3353,-4.3351,-4.3348,-4.3353,-4.3358,-4.3361,-4.3368,-4.3371,-4.3377,-4.3362,-4.3342,-4.3391,-4.3359,-4.3386,-4.3386,-4.3396,-4.3395,-4.3482,-4.3401,-4.3401,-4.3401,-4.3401,0,-4.3372,-4.3394,-4.3373,-4.3388,-4.3413,-4.3393,-4.3419,-4.3413,-4.3412,-4.3425,-4.3402,-4.3415,-4.3394,-4.3405,-4.3394,-4.3418,-4.342,-4.3415,-4.3411,-4.3416,-4.3417,-4.3418,-4.3414,-4.3403,-4.3403,-4.3402,-4.3402,0,-4.3439,-4.3426,-4.3449,-4.3441,-4.344,-4.3459,-4.3452,-4.3465,-4.3457,-4.3474,-4.3477,-4.3463,-4.3476,-4.3462,-4.3472,-4.3465,-4.3497,-4.3488,-4.3497,-4.3494,-4.3521,-4.3519,-4.3611,-4.3622,-4.3535,-4.3536,-4.3537,0,-4.3479,-4.3496,-4.349,-4.3497,-4.3496,-4.3508,-4.3514,-4.3496,-4.3503,-4.3504,-4.3517,-4.3528,-4.3535,-4.3556,-4.3547,-4.3556,-4.3547,-4.3579,-4.3548,-4.3553,-4.3547,-4.3545,-4.3547,-4.3584,-4.3585,-4.3586,-4.3587,0,-4.3551,-4.3544,-4.3552,-4.356,-4.3567,-4.3572,-4.3574,-4.3582,-4.3564,-4.3573,-4.3585,-4.3591,-4.3602,-4.3613,-4.362,-4.3618,-4.36,-4.3597,-4.3604,-4.3608,-4.3613,-4.361,-4.3513,-4.3595,-4.3594,-4.3593,-4.3593,-4.3593,-4.3605,-4.3619,-4.3618,-4.3628,-4.3629,-4.3633,-4.3645,-4.3639,-4.3648,-4.3657,-4.3646,-4.3662,-4.3661,-4.3668,-4.3669,-4.3681,-4.3667,-4.3677,-4.3679,-4.3681,-4.3685,-4.3612,-4.3682,-4.3682,-4.3682,-4.3682,-4.3682,0,-4.3675,-4.3674,-4.3684,-4.3689,-4.3698,-4.3681,-4.3684,-4.3692,-4.3706,-4.3708,-4.3716,-4.3731,-4.3741,-4.3735,-4.3744,-4.3755,-4.3747,-4.3758,-4.3756,-4.3756,-4.3697,-4.369,-4.3764,-4.3764,-4.3764,-4.3764,-4.3764,-4.3764,-4.3713,-4.3736,-4.3729,-4.3753,-4.3751,-4.3766,-4.3769,-4.3773,-4.3774,-4.3792,-4.38,-4.3796,-4.3795,-4.3804,-4.3814,-4.3811,-4.3816,-4.383,-4.3824,-4.3769,-4.3761,-4.3753,-4.3746,-4.3831,-4.3831,-4.3883,-4.3883,-4.3883]},{"header":{"parameterUnit":"m.s-1","parameterCategory":1,"la1":30.2991,"la2":30.254,"lo1":-89.0895,"lo2":-89.0444,"dy":0.0017,"dx":0.0017,"nx":28,"ny":28,"refTime":"2024-10-07T09:00:00:Z","depth":0,"parameterNumber":3,"parameterNumberName":"V-component_of_WINDS"},"data":[0,0,0,0,0,0,0,0,0,0,0,0,0,0,0,0,0,0,0,0,0,0,0,0,0,0,0,0,0,0,0,0,0,0,0,0,0,0,0,0,0,0,0,0,0,0,0,0,0,0,0,0,0,0,0,0,0,0,-4.0569,-4.0568,0,-4.0562,-4.0562,-4.0562,-4.0542,-4.0542,-4.0541,-4.0541,-4.0532,-4.0532,-4.0533,0,0,0,0,0,0,0,0,0,0,0,0,0,-4.0563,-4.0564,-4.0569,-4.0568,-4.0568,-4.0562,-4.0562,-4.0562,-4.0542,-4.0542,-4.0541,-4.0541,-4.0532,-4.0532,-4.0533,0,0,0,0,0,0,0,0,0,0,0,0,0,-4.0562,-4.0564,-4.0569,-4.0558,-4.0557,-4.0562,-4.0562,-4.0562,-4.0542,-4.0542,-4.0541,-4.054,-4.0532,-4.0532,-4.0533,-4.0547,0,0,-4.0533,-4.0533,0,0,0,0,0,0,0,0,-4.0562,-4.0562,-4.056,-4.0559,-4.0558,-4.0552,-4.0557,-4.0557,-4.0543,-4.0548,-4.0541,-4.054,-4.0539,-4.0539,-4.0539,-4.0546,-4.0546,-4.0533,-4.0533,-4.0534,-4.0534,0,0,0,0,0,0,0,-4.0562,-4.0562,-4.0566,-4.056,-4.0558,-4.0553,-4.0552,-4.0557,-4.0547,-4.0547,-4.0546,-4.0545,-4.0539,-4.0539,-4.0539,-4.0546,-4.0533,-4.0534,-4.0534,-4.0534,-4.0567,-4.0568,0,0,0,0,0,0,-4.0564,-4.0563,-4.0566,-4.0566,-4.0558,-4.0554,-4.0553,-4.0555,-4.0547,-4.0545,-4.0546,-4.0545,-4.0539,-4.0538,-4.0538,-4.0556,-4.0534,-4.0534,-4.0534,-4.0566,-4.0567,-4.0568,0,0,0,0,0,0,-4.0564,-4.0565,-4.0566,-4.0564,-4.0564,-4.0555,-4.0557,-4.0555,-4.0555,-4.0546,-4.0544,-4.0548,-4.0538,-4.0538,-4.0545,-4.0556,-4.0534,-4.0534,-4.0565,-4.0566,-4.0567,-4.0591,0,0,0,0,0,0,-4.0564,-4.0565,-4.057,-4.0564,-4.0564,-4.0574,-4.0557,-4.0555,-4.0556,-4.0554,-4.0548,-4.0546,-4.0538,-4.0545,-4.0546,-4.0555,-4.0534,-4.0564,-4.0566,-4.0567,-4.0589,-4.0593,-4.0596,0,0,0,0,0,-4.0564,-4.0576,-4.057,-4.0571,-4.0571,-4.0575,-4.0574,-4.0565,-4.0557,-4.0562,-4.0557,-4.0546,-4.0554,-4.0546,-4.0546,-4.0557,-4.0564,-4.0565,-4.0567,-4.0588,-4.0592,-4.0596,0,0,0,0,0,0,-4.0582,-4.0575,-4.0569,-4.0579,-4.0578,-4.0571,-4.0578,-4.057,-4.057,-4.0568,-4.0556,-4.0555,-4.0565,-4.0561,-4.0552,-4.0571,-4.0557,-4.0559,-4.0573,-4.0577,-4.058,-4.0582,-4.0535,0,0,0,0,0,-4.0588,-4.0592,-4.0585,-4.0595,-4.0595,-4.0587,-4.0588,-4.0581,-4.0579,-4.0578,-4.0573,-4.0571,-4.0573,-4.0575,-4.0576,-4.0589,-4.0588,-4.0596,-4.0599,-4.0602,-4.0604,-4.0612,-4.0616,-4.0573,-4.0573,-4.0573,0,0,-4.0599,-4.0595,-4.0598,-4.0599,-4.0597,-4.0602,-4.0586,-4.0591,-4.0595,-4.0578,-4.0586,-4.0583,-4.0579,-4.059,-4.0594,-4.0587,-4.0615,-4.0604,-4.0606,-4.0607,-4.0614,-4.0618,-4.0622,-4.0574,-4.0574,-4.0574,0,0,-4.0622,-4.0619,-4.0628,-4.0627,-4.0625,-4.062,-4.0622,-4.0617,-4.0614,-4.0622,-4.061,-4.0614,-4.0617,-4.0616,-4.0616,-4.0641,-4.0632,-4.0641,-4.0659,-4.0667,-4.0671,-4.0674,-4.0684,-4.0688,-4.0643,-4.0643,-4.0643,0,-4.0635,-4.0643,-4.0634,-4.0641,-4.0642,-4.0628,-4.0638,-4.0637,-4.0635,-4.0636,-4.0628,-4.0634,-4.063,-4.0642,-4.0648,-4.0648,-4.0651,-4.0643,-4.0671,-4.0674,-4.0676,-4.0686,-4.069,-4.0645,-4.0644,-4.0644,-4.0644,0,-4.0661,-4.0666,-4.0674,-4.0675,-4.0676,-4.0684,-4.0677,-4.0679,-4.0673,-4.0668,-4.0677,-4.0673,-4.0674,-4.0676,-4.0669,-4.0687,-4.0683,-4.0673,-4.0659,-4.0682,-4.0691,-4.0695,-4.0647,-4.0646,-4.0646,-4.0645,0,0,-4.0695,-4.0691,-4.0695,-4.0696,-4.0693,-4.0697,-4.0705,-4.0707,-4.0711,-4.071,-4.0717,-4.0721,-4.0713,-4.0713,-4.0705,-4.0712,-4.0735,-4.0702,-4.0702,-4.071,-4.0757,-4.0765,-4.077,-4.0728,-4.0729,-4.0729,-4.0758,0,-4.0718,-4.0733,-4.0725,-4.0741,-4.0747,-4.0734,-4.0742,-4.0741,-4.0737,-4.0741,-4.0737,-4.0741,-4.0728,-4.0729,-4.0735,-4.0731,-4.0744,-4.0728,-4.0736,-4.0736,-4.0739,-4.0774,-4.0783,-4.081,-4.0761,-4.0761,-4.0762,0,-4.0747,-4.075,-4.0766,-4.0765,-4.0767,-4.0774,-4.0776,-4.078,-4.078,-4.0776,-4.0777,-4.0769,-4.0777,-4.0763,-4.0774,-4.0764,-4.0766,-4.0765,-4.0765,-4.0767,-4.0751,-4.0778,-4.0818,-4.0823,-4.0767,-4.0767,-4.0766,0,-4.0773,-4.078,-4.0792,-4.0792,-4.079,-4.0796,-4.0795,-4.0793,-4.0796,-4.0798,-4.08,-4.0802,-4.0804,-4.0806,-4.0799,-4.0789,-4.0812,-4.0797,-4.081,-4.0811,-4.0817,-4.0817,-4.0859,-4.0816,-4.0816,-4.0816,-4.0815,0,-4.08,-4.0811,-4.0803,-4.0811,-4.0823,-4.0814,-4.0827,-4.0824,-4.0824,-4.0831,-4.0819,-4.0826,-4.0815,-4.082,-4.0814,-4.0826,-4.0826,-4.0824,-4.0823,-4.0826,-4.0827,-4.0829,-4.0827,-4.0817,-4.0816,-4.0816,-4.0816,0,-4.0831,-4.0826,-4.0838,-4.0836,-4.0836,-4.0845,-4.0843,-4.085,-4.0846,-4.0855,-4.0856,-4.085,-4.0856,-4.0849,-4.0853,-4.0849,-4.0866,-4.0861,-4.0867,-4.0866,-4.0881,-4.0881,-4.0927,-4.0934,-4.0885,-4.0885,-4.0886,0,-4.085,-4.0858,-4.0858,-4.0862,-4.0863,-4.087,-4.0873,-4.0865,-4.0869,-4.087,-4.0877,-4.0882,-4.0886,-4.0896,-4.0892,-4.0896,-4.0892,-4.0908,-4.0893,-4.0897,-4.0895,-4.0895,-4.0897,-4.0912,-4.0912,-4.0913,-4.0913,0,-4.0884,-4.0882,-4.0888,-4.0893,-4.0898,-4.0901,-4.0904,-4.0908,-4.09,-4.0905,-4.0912,-4.0915,-4.0921,-4.0927,-4.093,-4.0929,-4.0921,-4.0918,-4.0922,-4.0926,-4.093,-4.0931,-4.0877,-4.0917,-4.0917,-4.0917,-4.0916,-4.0916,-4.0911,-4.0919,-4.0921,-4.0928,-4.0929,-4.0933,-4.094,-4.0937,-4.0943,-4.0949,-4.0943,-4.0952,-4.0953,-4.0956,-4.0957,-4.0964,-4.0957,-4.0961,-4.0963,-4.0965,-4.0968,-4.0928,-4.0964,-4.0964,-4.0963,-4.0963,-4.0963,0,-4.0946,-4.0947,-4.0954,-4.0959,-4.0965,-4.0957,-4.096,-4.0966,-4.0974,-4.0976,-4.0981,-4.099,-4.0996,-4.0993,-4.0998,-4.1004,-4.1001,-4.1006,-4.1006,-4.1007,-4.0973,-4.097,-4.1009,-4.1009,-4.1009,-4.1009,-4.1009,-4.1009,-4.0966,-4.098,-4.0978,-4.0993,-4.0994,-4.1003,-4.1006,-4.1009,-4.1011,-4.1022,-4.1028,-4.1026,-4.1026,-4.1032,-4.1037,-4.1036,-4.1039,-4.1047,-4.1045,-4.1013,-4.1009,-4.1005,-4.1002,-4.1047,-4.1047,-4.1078,-4.1078,-4.1079]}]]